EW6756 Weather Reports


Display with metric or nautical units.
time (UTC)temp
F
wind
direction
speed
MPH
gust
MPH
rain 1hr
in
rain 24hr
in
rain mn
in
humidity
%
barometer
mb
20260505023003 44 18 0.0 1.0 0.00 0.00 0.00 85 1012.2
20260505022503 44 18 0.0 1.0 0.00 0.00 0.00 85 1012.3
20260505022003 44 18 0.0 1.0 0.00 0.00 0.00 85 1012.4
20260505021503 44 0 0.0 0.0 0.00 0.00 0.00 84 1012.5
20260505021003 44 0 0.0 0.0 0.00 0.00 0.00 84 1012.5
20260505020503 44 17 0.0 3.0 0.00 0.00 0.00 84 1012.3
20260505020003 45 18 0.0 3.0 0.00 0.00 0.00 84 1012.4
20260505015503 45 19 1.0 4.0 0.00 0.00 0.00 84 1012.3
20260505015003 45 20 1.0 4.0 0.00 0.00 0.00 84 1012.7
20260505014503 45 20 1.0 4.0 0.00 0.00 0.00 84 1012.4
20260505014003 45 20 1.0 4.0 0.00 0.00 0.00 84 1012.3
20260505013503 45 21 0.0 3.0 0.00 0.00 0.00 85 1012.4
20260505013003 45 21 0.0 3.0 0.00 0.00 0.00 85 1012.4
20260505012503 45 24 1.0 3.0 0.00 0.00 0.00 84 1012.6
20260505012003 45 24 1.0 3.0 0.00 0.00 0.00 84 1012.5
20260505011503 45 24 0.0 3.0 0.00 0.00 0.00 84 1012.4
20260505011003 45 28 0.0 4.0 0.00 0.00 0.00 84 1012.6
20260505010503 45 28 0.0 4.0 0.00 0.00 0.00 84 1012.5
20260505010218 45 28 0.0 4.0 0.00 0.00 0.00 84 1012.4
20260505005503 45 26 0.0 1.0 0.00 0.00 0.00 84 1012.5
20260505005004 45 0 0.0 0.0 0.00 0.00 0.00 84 1012.7
20260505004503 45 0 0.0 0.0 0.00 0.00 0.00 84 1012.7
20260505004003 45 0 0.0 0.0 0.00 0.00 0.00 84 1012.5
20260505003503 45 0 0.0 0.0 0.00 0.00 0.00 84 1012.8
20260505003218 45 0 0.0 0.0 0.00 0.00 0.00 84 1012.7
20260505002503 45 0 0.0 0.0 0.00 0.00 0.00 84 1012.7
20260505002003 45 0 0.0 0.0 0.00 0.00 0.00 84 1012.9
20260505001717 45 0 0.0 0.0 0.00 0.00 0.00 84 1012.8
20260505001003 45 0 0.0 0.0 0.00 0.00 0.00 85 1012.9
20260505000717 45 0 0.0 0.0 0.00 0.00 0.00 85 1012.9
20260505000003 44 0 0.0 0.0 0.00 0.00 0.00 84 1013.0
20260504235503 44 0 0.0 0.0 0.00 0.00 0.00 84 1013.0
20260504235003 44 0 0.0 0.0 0.00 0.00 0.00 84 1012.9
20260504234503 44 0 0.0 0.0 0.00 0.00 0.00 83 1012.8
20260504234003 44 0 0.0 0.0 0.00 0.00 0.00 83 1013.0
20260504233503 45 0 0.0 0.0 0.00 0.00 0.00 83 1013.0
20260504233003 45 0 0.0 0.0 0.00 0.00 0.00 83 1013.0
20260504232717 45 0 0.0 0.0 0.00 0.00 0.00 83 1013.0
20260504232003 45 0 0.0 0.0 0.00 0.00 0.00 83 1012.9
20260504231503 45 0 0.0 0.0 0.00 0.00 0.00 82 1013.1
20260504231003 46 0 0.0 0.0 0.00 0.00 0.00 82 1013.2
20260504230503 46 0 0.0 0.0 0.00 0.00 0.00 82 1013.1
20260504230003 46 0 0.0 0.0 0.00 0.00 0.00 82 1013.0
20260504225503 46 0 0.0 0.0 0.00 0.00 0.00 82 1013.1
20260504225003 47 0 0.0 0.0 0.00 0.00 0.00 82 1013.0
20260504224503 47 0 0.0 0.0 0.00 0.00 0.00 82 1013.0
20260504224003 47 0 0.0 0.0 0.00 0.00 0.00 82 1013.1
20260504223503 47 0 0.0 0.0 0.00 0.00 0.00 82 1013.2
20260504223217 47 0 0.0 0.0 0.00 0.00 0.00 82 1013.2
20260504222503 47 0 0.0 0.0 0.00 0.00 0.00 82 1013.4
20260504222003 47 0 0.0 0.0 0.00 0.00 0.00 82 1013.4
20260504221503 47 0 0.0 0.0 0.00 0.00 0.00 82 1013.4
20260504221003 47 0 0.0 0.0 0.00 0.01 0.00 82 1013.4
20260504220718 47 0 0.0 0.0 0.00 0.01 0.00 82 1013.5
20260504220217 47 0 0.0 0.0 0.00 0.01 0.00 82 1013.3
20260504215503 47 0 0.0 0.0 0.00 0.01 0.01 82 1013.5
20260504215003 47 0 0.0 0.0 0.00 0.01 0.01 82 1013.6
20260504214718 47 0 0.0 0.0 0.00 0.01 0.01 82 1013.7
20260504214003 47 0 0.0 0.0 0.00 0.01 0.01 82 1013.7
20260504213503 48 0 0.0 0.0 0.00 0.01 0.01 81 1013.9
20260504213003 48 0 0.0 0.0 0.00 0.01 0.01 81 1013.6
20260504212503 48 0 0.0 0.0 0.00 0.01 0.01 81 1013.7
20260504212003 48 0 0.0 0.0 0.00 0.01 0.01 81 1013.6
20260504211503 48 0 0.0 0.0 0.00 0.01 0.01 81 1013.6
20260504211003 49 0 0.0 0.0 0.00 0.01 0.01 80 1013.7
20260504210503 49 0 0.0 0.0 0.00 0.01 0.01 80 1013.5
20260504210003 49 0 0.0 0.0 0.00 0.01 0.01 80 1013.5
20260504205503 49 0 0.0 0.0 0.00 0.01 0.01 80 1013.5
20260504205217 49 0 0.0 0.0 0.00 0.01 0.01 80 1013.4
20260504204718 49 0 0.0 0.0 0.00 0.01 0.01 80 1013.5
20260504204217 49 0 0.0 0.0 0.00 0.01 0.01 80 1013.6
20260504203718 49 0 0.0 0.0 0.00 0.01 0.01 80 1013.3
20260504203003 49 0 0.0 0.0 0.00 0.02 0.01 80 1013.4
20260504202503 49 0 0.0 0.0 0.00 0.02 0.01 80 1013.7
20260504202003 49 0 0.0 0.0 0.00 0.02 0.01 80 1013.6
20260504201717 49 0 0.0 0.0 0.00 0.02 0.01 79 1013.5
20260504201003 50 0 0.0 0.0 0.00 0.02 0.01 79 1013.5
20260504200503 50 0 0.0 0.0 0.00 0.02 0.01 79 1013.4
20260504200003 50 0 0.0 0.0 0.00 0.03 0.01 78 1013.4
20260504195503 50 0 0.0 0.0 0.00 0.03 0.01 78 1013.5
20260504195003 51 0 0.0 0.0 0.00 0.03 0.01 78 1013.6
20260504194503 51 0 0.0 0.0 0.00 0.03 0.01 78 1013.5
20260504194003 51 0 0.0 0.0 0.00 0.03 0.01 78 1013.4
20260504193503 52 0 0.0 0.0 0.00 0.03 0.01 77 1013.4
20260504193003 52 0 0.0 0.0 0.00 0.04 0.01 77 1013.2
20260504192503 52 0 0.0 0.0 0.00 0.04 0.01 77 1013.1
20260504192003 53 0 0.0 0.0 0.00 0.04 0.01 77 1013.2
20260504191503 53 0 0.0 0.0 0.00 0.05 0.01 77 1013.2
20260504191003 53 0 0.0 0.0 0.00 0.06 0.01 77 1013.1
20260504190503 53 0 0.0 0.0 0.00 0.06 0.01 77 1013.1
20260504190218 54 0 0.0 0.0 0.00 0.06 0.01 77 1012.9
20260504185503 54 0 0.0 0.0 0.00 0.06 0.01 77 1013.0
20260504185003 54 0 0.0 0.0 0.00 0.07 0.01 76 1012.9
20260504184503 54 0 0.0 0.0 0.00 0.07 0.01 76 1013.0
20260504184003 55 0 0.0 0.0 0.00 0.07 0.01 76 1013.0
20260504183503 55 0 0.0 0.0 0.00 0.07 0.01 76 1013.1
20260504183218 55 0 0.0 0.0 0.00 0.07 0.01 76 1013.0
20260504182717 55 0 0.0 0.0 0.00 0.07 0.01 75 1013.1
20260504182003 56 145 0.0 1.0 0.00 0.07 0.01 75 1012.8
20260504181503 56 145 0.0 1.0 0.00 0.07 0.01 75 1013.0
20260504181003 56 0 0.0 0.0 0.00 0.07 0.01 75 1012.8
20260504180503 56 124 0.0 1.0 0.00 0.07 0.01 75 1012.9
20260504180003 56 116 0.0 1.0 0.00 0.07 0.01 74 1012.6
20260504175503 56 109 0.0 1.0 0.00 0.07 0.01 74 1012.8
20260504175003 57 109 0.0 1.0 0.00 0.07 0.01 74 1012.8
20260504174503 57 0 0.0 0.0 0.00 0.07 0.01 74 1012.6
20260504174218 57 0 0.0 1.0 0.00 0.07 0.01 74 1012.8
20260504173716 57 134 0.0 1.0 0.00 0.07 0.01 74 1012.8
20260504173003 58 0 0.0 0.0 0.00 0.07 0.01 74 1013.1
20260504172716 58 186 0.0 1.0 0.00 0.07 0.01 74 1013.1
20260504172003 58 271 0.0 1.0 0.00 0.07 0.01 73 1013.0
20260504171718 58 319 0.0 1.0 0.00 0.07 0.01 73 1013.1
20260504171003 58 341 0.0 4.0 0.00 0.07 0.01 74 1012.9
20260504170503 58 216 0.0 4.0 0.00 0.07 0.01 74 1012.8
20260504170217 58 203 0.0 4.0 0.00 0.07 0.01 74 1012.7
20260504160217 59 219 0.0 4.0 0.00 0.07 0.01 73 1012.9
20260504151003 60 110 0.0 3.0 0.00 0.07 0.01 74 1013.2
20260504150503 60 190 1.0 4.0 0.00 0.07 0.01 74 1013.1
20260504150216 60 204 1.0 4.0 0.00 0.07 0.01 74 1013.1
20260504141003 59 225 1.0 7.0 0.00 0.07 0.01 77 1013.5
20260504140503 58 236 2.0 8.0 0.00 0.07 0.01 76 1013.5
20260504140218 58 220 1.0 8.0 0.00 0.07 0.01 76 1013.6
20260504130503 59 228 1.0 10.0 0.00 0.07 0.01 75 1013.6
20260504130218 59 215 1.0 10.0 0.00 0.07 0.01 76 1013.8
20260504110503 58 210 2.0 5.0 0.00 0.07 0.01 79 1013.7
20260504100503 56 145 1.0 4.0 0.00 0.07 0.01 81 1013.7
20260504082003 55 222 1.0 10.0 0.00 0.07 0.01 84 1013.0
20260504081503 55 201 1.0 4.0 0.00 0.07 0.01 84 1012.9
20260504081218 55 182 1.0 4.0 0.00 0.07 0.01 84 1013.0
20260504080503 55 212 1.0 3.0 0.00 0.07 0.01 84 1012.8
20260504050503 53 203 0.0 1.0 0.00 0.07 0.01 91 1011.2
20260504050003 53 284 0.0 1.0 0.00 0.07 0.01 91 1011.3
20260504045503 53 209 0.0 1.0 0.00 0.07 0.01 91 1011.0
20260504045003 53 225 0.0 3.0 0.00 0.07 0.01 91 1010.9
20260504044504 53 224 0.0 3.0 0.00 0.07 0.01 91 1010.8
20260504044003 53 234 0.0 3.0 0.00 0.07 0.01 91 1011.0
20260504043503 53 239 0.0 3.0 0.00 0.07 0.01 91 1010.8
20260504043003 53 212 0.0 1.0 0.00 0.07 0.01 92 1010.8
20260504042718 53 214 0.0 1.0 0.00 0.07 0.01 92 1010.7
20260504042003 53 222 0.0 3.0 0.00 0.07 0.01 92 1010.7
20260504041503 52 257 0.0 3.0 0.00 0.07 0.01 92 1010.8
20260504041216 52 230 0.0 4.0 0.00 0.07 0.01 92 1010.8
20260504040503 52 232 0.0 4.0 0.00 0.07 0.01 92 1010.9
20260504040003 52 262 0.0 5.0 0.00 0.07 0.01 92 1010.8
20260504035503 52 266 1.0 5.0 0.00 0.07 0.01 92 1010.6
20260504035216 53 264 1.0 5.0 0.00 0.07 0.01 92 1010.5
20260504034717 52 261 1.0 4.0 0.00 0.07 0.01 91 1010.5
20260504034003 53 251 1.0 5.0 0.00 0.07 0.01 91 1010.5
20260504033503 53 228 1.0 5.0 0.00 0.07 0.01 91 1010.7
20260504033003 53 249 1.0 7.0 0.00 0.07 0.01 91 1010.4
20260504032503 53 238 2.0 7.0 0.00 0.07 0.01 91 1010.4
20260504032003 53 223 2.0 7.0 0.00 0.07 0.01 91 1010.5
20260504031503 53 216 1.0 7.0 0.00 0.07 0.01 91 1010.6
20260504031218 53 219 1.0 7.0 0.00 0.07 0.01 91 1010.3
20260504030503 53 205 1.0 7.0 0.00 0.07 0.01 91 1010.4
20260504030003 53 246 2.0 11.0 0.00 0.07 0.01 91 1010.3
20260504025503 53 246 2.0 11.0 0.00 0.07 0.01 91 1010.4
20260504025003 53 214 2.0 11.0 0.00 0.07 0.01 91 1010.2
20260504024503 53 197 2.0 10.0 0.00 0.07 0.01 91 1010.0
20260504024003 53 219 1.0 8.0 0.00 0.07 0.01 91 1010.0
20260504023503 54 256 1.0 8.0 0.00 0.07 0.01 91 1009.8